This is the latest recevied weather packets stored in our database for station/object WA1OUI. If no packets are shown the sender has not sent any weather packets the latest 10 day(s).
| Time | Temp. | Humidity | Pressure | Rain* | Wind** | Luminosity | Snow |
|---|---|---|---|---|---|---|---|
| 1777815451 | 8.89° C | 55% | 1007.5 hPa | 0 mm | - | 198 W/m² | - |
| 1777815148 | 8.89° C | 57% | 1007.7 hPa | 0 mm | - | 219 W/m² | - |
| 1777814845 | 8.89° C | 56% | 1007.5 hPa | 0 mm | - | 196 W/m² | - |
| 1777814541 | 8.89° C | 58% | 1007.6 hPa | 0 mm | - | 194 W/m² | - |
| 1777814238 | 8.89° C | 56% | 1007.8 hPa | 0 mm | - | 191 W/m² | - |
| 1777813935 | 8.33° C | 57% | 1007.7 hPa | 0 mm | - | 203 W/m² | - |
| 1777813633 | 8.33° C | 59% | 1007.7 hPa | 0 mm | - | 143 W/m² | - |
| 1777813330 | 7.78° C | 63% | 1007.5 hPa | 0 mm | - | 126 W/m² | - |
| 1777813027 | 7.78° C | 59% | 1007.7 hPa | 0 mm | - | 120 W/m² | - |
| 1777812725 | 7.78° C | 62% | 1007.7 hPa | 0 mm | - | 104 W/m² | - |
| 1777812421 | 7.78° C | 61% | 1007.7 hPa | 0 mm | - | 122 W/m² | - |
| 1777812119 | 7.22° C | 62% | 1007.8 hPa | 0 mm | - | 148 W/m² | - |
| 1777811817 | 7.22° C | 63% | 1007.8 hPa | 0 mm | - | 136 W/m² | - |
| 1777811515 | 6.67° C | 62% | 1007.7 hPa | 0 mm | - | 140 W/m² | - |
| 1777811210 | 6.67° C | 66% | 1007.7 hPa | 0 mm | - | 132 W/m² | - |
| 1777810908 | 6.67° C | 64% | 1007.7 hPa | 0 mm | - | 127 W/m² | - |
| 1777810604 | 6.67° C | 66% | 1007.8 hPa | 0 mm | - | 112 W/m² | - |
| 1777810302 | 6.11° C | 65% | 1007.8 hPa | 0 mm | - | 111 W/m² | - |
| 1777809997 | 6.11° C | 65% | 1007.7 hPa | 0 mm | - | 92 W/m² | - |
| 1777809695 | 6.11° C | 67% | 1007.7 hPa | 0 mm | - | 81 W/m² | - |
| 1777809392 | 6.11° C | 67% | 1007.8 hPa | 0 mm | - | 75 W/m² | - |
| 1777809090 | 5.56° C | 65% | 1007.7 hPa | 0 mm | - | 71 W/m² | - |
| 1777808787 | 5.56° C | 65% | 1007.5 hPa | 0 mm | - | 76 W/m² | - |
| 1777808484 | 5.56° C | 67% | 1007.7 hPa | 0 mm | - | 70 W/m² | - |
| 1777808182 | 5.56° C | 66% | 1007.8 hPa | 0 mm | - | 74 W/m² | - |
* Rain latest hour (hover to see other rain measurements)
** Current wind speed in m/s (hover to see current wind gust speed)